FW1811 Weather Reports


time (UTC)temp
C
wind
direction
speed
KPH
gust
KPH
rain 1hr
cm
rain 24hr
cm
rain mn
cm
humidity
%
barometer
mb
20190522101033 24 56 3.2 4.8 0.00 0.00 0.00 62 1010.7
20190522100034 24 28 3.2 4.8 0.00 0.00 0.00 61 1011.1
20190522095027 24 6 3.2 6.4 0.00 0.00 0.00 61 1011.2
20190522094034 24 1 4.8 8.0 0.00 0.00 0.00 61 1011.1
20190522093033 24 356 6.4 8.0 0.00 0.00 0.00 65 1011.1
20190522092019 24 6 6.4 9.7 0.00 0.00 0.00 67 1011.1
20190522091033 25 355 6.4 9.7 0.00 0.00 0.00 66 1010.9
20190522090035 25 2 4.8 9.7 0.00 0.00 0.00 64 1010.7
20190522085027 25 7 6.4 9.7 0.00 0.00 0.00 63 1010.9
20190522084035 25 359 3.2 6.4 0.00 0.00 0.00 64 1010.9
20190522083033 25 21 3.2 6.4 0.00 0.00 0.00 64 1010.5
20190522082035 26 307 4.8 8.0 0.00 0.00 0.00 63 1010.5
20190522081033 26 15 3.2 4.8 0.00 0.00 0.00 65 1010.4
20190522080019 26 13 3.2 8.0 0.00 0.00 0.00 64 1010.4
20190522075033 26 13 4.8 8.0 0.00 0.00 0.00 65 1010.4
20190522074035 26 3 4.8 8.0 0.00 0.00 0.00 64 1010.4
20190522073027 26 356 6.4 9.7 0.00 0.00 0.00 65 1010.5
20190522072035 26 31 9.7 12.9 0.00 0.00 0.00 62 1010.6
20190522071033 26 353 1.6 8.0 0.00 0.00 0.00 61 1010.5
20190522070035 26 356 8.0 9.7 0.00 0.00 0.00 61 1010.4
20190522065033 26 4 9.7 14.5 0.00 0.00 0.00 61 1010.4
20190522064019 27 1 8.0 14.5 0.00 0.00 0.00 60 1010.4
20190522063034 27 358 1.6 4.8 0.00 0.00 0.00 59 1010.4
20190522062035 27 355 4.8 6.4 0.00 0.00 0.00 59 1010.6
20190522061033 27 336 6.4 8.0 0.00 0.00 0.00 60 1010.7
20190522060035 27 8 8.0 9.7 0.00 0.00 0.00 56 1010.7
20190522055034 27 339 6.4 8.0 0.00 0.00 0.00 58 1010.4
20190522054019 27 6 6.4 12.9 0.00 0.00 0.00 58 1010.9
20190522053033 26 0 4.8 8.0 0.00 0.00 0.00 58 1011.1
20190522052035 26 358 6.4 9.7 0.00 0.00 0.00 59 1011.1
20190522051027 26 22 8.0 9.7 0.00 0.00 0.00 59 1011.3
20190522050035 27 42 3.2 6.4 0.00 0.00 0.00 61 1011.4
20190522045034 27 18 6.4 9.7 0.00 0.00 0.00 64 1011.4
20190522044035 28 47 3.2 4.8 0.00 0.00 0.00 60 1011.6
20190522043034 28 309 4.8 9.7 0.00 0.00 0.00 59 1011.6
20190522042019 27 5 4.8 8.0 0.00 0.00 0.00 62 1012.1
20190522041034 27 320 3.2 6.4 0.00 0.00 0.00 62 1012.3
20190522040035 26 50 1.6 4.8 0.00 0.00 0.00 64 1012.2
20190522035033 26 343 4.8 8.0 0.00 0.00 0.00 66 1012.1
20190522034019 26 331 4.8 6.4 0.00 0.00 0.00 66 1012.4
20190522033033 26 338 6.4 8.0 0.00 0.03 0.00 68 1012.2
20190522032035 26 309 4.8 8.0 0.00 0.08 0.00 69 1012.6
20190522031028 27 236 3.2 6.4 0.00 0.08 0.00 67 1012.8
20190522030035 27 242 4.8 6.4 0.00 0.08 0.00 67 1012.6
20190522025033 27 262 4.8 8.0 0.00 0.08 0.00 67 1012.4
20190522024035 27 234 4.8 6.4 0.00 0.08 0.00 67 1012.3
20190522023033 27 204 1.6 4.8 0.00 0.08 0.00 67 1012.4
20190522022020 27 196 1.6 4.8 0.00 0.08 0.00 67 1012.4
20190522021034 27 207 4.8 8.0 0.00 0.08 0.00 67 1012.2
20190522020035 27 202 0.0 3.2 0.00 0.08 0.00 66 1012.3
20190522015027 27 203 4.8 8.0 0.00 0.08 0.00 66 1012.1
20190522014035 27 222 6.4 9.7 0.00 0.08 0.00 68 1012.1
20190522013033 27 202 3.2 8.0 0.00 0.08 0.00 66 1012.1
20190522012035 26 207 3.2 4.8 0.00 0.08 0.00 67 1012.1
20190522011033 27 210 1.6 4.8 0.00 0.08 0.00 66 1012.1
20190522010020 26 209 0.0 1.6 0.00 0.08 0.00 68 1012.4
20190522005028 27 192 1.6 3.2 0.00 0.08 0.00 66 1012.1
20190522004035 27 179 0.0 1.6 0.00 0.08 0.00 65 1012.1
20190522003033 27 88 0.0 1.6 0.00 0.08 0.00 68 1012.1
20190522002035 26 122 1.6 3.2 0.00 0.08 0.00 71 1011.9
20190522001033 25 345 3.2 4.8 0.00 0.08 0.00 73 1012.1
20190522000020 25 322 1.6 4.8 0.00 0.08 0.00 73 1012.1
20190521235034 25 101 1.6 3.2 0.00 0.08 0.00 74 1012.1
20190521234035 24 50 3.2 3.2 0.00 0.08 0.00 73 1011.9
20190521233028 24 329 1.6 4.8 0.00 0.08 0.00 74 1012.1
20190521232035 23 123 0.0 1.6 0.00 0.08 0.00 74 1011.9
20190521231033 23 150 0.0 1.6 0.00 0.08 0.00 74 1012.1
20190521230035 23 271 1.6 3.2 0.00 0.08 0.00 74 1012.1
20190521225034 22 323 0.0 1.6 0.00 0.08 0.00 75 1011.9
20190521224020 23 100 0.0 1.6 0.00 0.08 0.00 75 1011.6
20190521223033 22 137 0.0 1.6 0.00 0.08 0.00 74 1011.4
20190521222035 22 109 1.6 3.2 0.00 0.08 0.00 72 1011.4
20190521221028 22 122 1.6 3.2 0.00 0.08 0.00 72 1011.6
20190521220035 22 122 1.6 3.2 0.00 0.08 0.00 71 1011.4
20190521215034 22 23 1.6 4.8 0.00 0.08 0.00 71 1011.7
20190521214035 22 27 1.6 3.2 0.00 0.08 0.00 71 1011.7
20190521213034 22 17 3.2 4.8 0.00 0.08 0.00 71 1011.5
20190521212020 22 29 0.0 1.6 0.00 0.08 0.00 71 1011.7
20190521211034 22 347 1.6 3.2 0.00 0.08 0.00 71 1011.6
20190521210036 22 0.0 0.0 0.00 0.08 0.00 72 1011.4
20190521205028 22 26 0.0 1.6 0.00 0.08 0.00 71 1011.4
20190521204036 22 38 1.6 3.2 0.00 0.08 0.00 72 1011.4
20190521203033 22 61 1.6 3.2 0.00 0.08 0.00 72 1011.4
20190521202036 22 120 0.0 3.2 0.00 0.08 0.00 75 1011.6
20190521201033 22 3 1.6 3.2 0.00 0.08 0.00 76 1011.4
20190521200020 22 18 1.6 3.2 0.00 0.08 0.00 75 1011.2
20190521195034 22 55 0.0 3.2 0.00 0.08 0.00 77 1011.4
20190521194036 22 116 0.0 1.6 0.00 0.08 0.00 78 1011.4
20190521193028 22 53 0.0 1.6 0.00 0.08 0.00 78 1011.5
20190521192035 22 213 0.0 1.6 0.00 0.08 0.00 78 1011.6
20190521191034 22 309 0.0 1.6 0.00 0.08 0.00 78 1011.4
20190521190036 22 220 0.0 1.6 0.00 0.08 0.00 77 1011.6
20190521185034 22 201 0.0 1.6 0.00 0.08 0.00 77 1011.5
20190521184020 22 0.0 0.0 0.00 0.08 0.00 77 1011.6
20190521183033 22 0.0 0.0 0.00 0.08 0.00 76 1011.4
20190521182036 22 163 0.0 1.6 0.00 0.08 0.00 77 1011.4
20190521181028 22 139 0.0 1.6 0.00 0.08 0.00 76 1011.5
20190521180036 22 0.0 0.0 0.00 0.08 0.00 75 1011.6
20190521175034 22 198 0.0 1.6 0.00 0.08 0.00 74 1011.7
20190521174036 22 0.0 0.0 0.00 0.08 0.00 73 1011.7
20190521173034 22 0.0 0.0 0.00 0.08 0.00 71 1012.0
20190521172020 22 142 0.0 1.6 0.00 0.08 0.00 70 1012.1
20190521171034 22 143 0.0 1.6 0.00 0.08 0.00 71 1012.1
20190521170036 22 223 0.0 1.6 0.00 0.08 0.00 71 1012.1
20190521165028 22 45 0.0 1.6 0.00 0.08 0.00 72 1012.1
20190521164036 22 87 0.0 3.2 0.00 0.08 0.00 71 1012.1
20190521163034 22 85 0.0 3.2 0.00 0.08 0.00 70 1012.1
20190521162036 22 102 0.0 1.6 0.00 0.08 0.00 71 1012.3
20190521161034 22 25 3.2 4.8 0.00 0.08 0.00 71 1012.4
20190521160020 22 17 1.6 3.2 0.00 0.08 0.00 71 1012.6
20190521155028 22 39 1.6 4.8 0.00 0.08 0.08 71 1012.6
20190521154021 22 14 1.6 3.2 0.00 0.08 0.08 70 1012.8
20190521153033 22 260 0.0 1.6 0.00 0.08 0.08 70 1013.0
20190521152036 22 308 3.2 4.8 0.00 0.08 0.08 70 1012.8
20190521151034 22 336 3.2 4.8 0.00 0.08 0.08 70 1012.9
20190521150033 22 102 0.0 3.2 0.00 0.08 0.08 70 1012.9
20190521145034 22 119 0.0 3.2 0.00 0.08 0.08 69 1012.8
20190521144020 22 169 0.0 1.6 0.00 0.08 0.08 69 1013.1
20190521143033 22 5 3.2 4.8 0.00 0.08 0.08 68 1013.1
20190521142033 22 36 3.2 3.2 0.00 0.08 0.08 68 1013.1
20190521141029 22 358 4.8 8.0 0.00 0.08 0.08 67 1013.1
20190521140033 22 33 1.6 4.8 0.00 0.08 0.08 68 1013.1
20190521135034 22 4 4.8 6.4 0.00 0.08 0.08 69 1012.7
20190521134033 22 24 1.6 4.8 0.00 0.08 0.08 68 1012.8
20190521133033 22 11 3.2 3.2 0.00 0.08 0.08 69 1012.6
20190521132033 23 155 0.0 1.6 0.00 0.08 0.08 68 1012.4
20190521131028 23 55 1.6 3.2 0.00 0.08 0.08 68 1012.3
20190521130033 23 310 1.6 3.2 0.00 0.08 0.08 68 1012.1
20190521125034 22 16 1.6 3.2 0.00 0.08 0.08 69 1012.1
20190521124033 22 56 3.2 4.8 0.00 0.08 0.08 68 1011.9
20190521123034 22 10 4.8 6.4 0.00 0.08 0.08 69 1011.9
20190521122021 22 46 1.6 3.2 0.00 0.08 0.08 69 1011.6
20190521121034 22 307 1.6 3.2 0.00 0.08 0.08 69 1011.4
20190521120033 22 21 4.8 6.4 0.00 0.08 0.08 69 1011.4
20190521115029 22 14 4.8 8.0 0.00 0.08 0.08 69 1011.4
20190521114033 23 354 3.2 4.8 0.00 0.08 0.08 69 1011.4
20190521113035 23 4 6.4 8.0 0.00 0.10 0.08 68 1011.3
20190521112033 23 37 4.8 9.7 0.00 0.10 0.08 68 1011.1
20190521111034 23 359 4.8 9.7 0.00 0.10 0.08 69 1010.9
20190521110021 23 355 4.8 8.0 0.00 0.10 0.08 69 1010.7
20190521105034 23 18 3.2 4.8 0.00 0.10 0.08 69 1010.5
20190521104033 23 26 3.2 6.4 0.00 0.10 0.08 68 1010.4
20190521103029 23 15 6.4 12.9 0.00 0.10 0.08 66 1010.4
20190521102033 23 21 4.8 9.7 0.00 0.10 0.08 67 1010.6